Weather History for Maastricht, Netherlands

Change the Weather History Date:

Wednesday, January 23, 2013

  Actual Average Record
Temperature  
Mean Temperature 24 °F -  
Max Temperature 30 °F 42 °F 51 °F (2001)
Min Temperature 17 °F 31 °F 17 °F (2013)
Degree Days  
Heating Degree Days 42    
Moisture  
Dew Point 24 °F    
Average Humidity 93    
Maximum Humidity 100    
Minimum Humidity 80    
Precipitation  
Precipitation 0.00 in 0.07 in - ()
Sea Level Pressure  
Sea Level Pressure 29.77 in    
Wind  
Wind Speed 5 mph ()    
Max Wind Speed 8 mph    
Max Gust Speed -    
Visibility 1.7 miles    
Events      
Averages and records for this station are not official NWS values.
T = Trace of Precipitation, MM = Missing Value Source: Averaged Metar Reports

Daily Weather History Graph

Daily Weather History Graph

Search for Another Location

Airport:

Trip Planner

Search our weather history database for the weather conditions in past years. The results will help you decide how hot, cold, wet, or windy it might be!

Date:

Astronomy

Jan. 23, 2013 Rise Set
Actual Time 8:25 AM CET 5:12 PM CET
Civil Twilight 7:48 AM CET 5:49 PM CET
Nautical Twilight 7:07 AM CET 6:30 PM CET
Astronomical Twilight 6:29 AM CET 7:09 PM CET
Moon 2:04 PM CET (1/23) 5:29 AM CET (1/23)
Length of Visible Light 10h 01m
Length of Day
8h 47m
Waxing Gibbous, 87% of the Moon is Illuminated
Jan 23
Waxing Gibbous
Jan 27
Full
Feb 3
Last Quarter
Feb 10
New
Feb 17
First Quarter

Hourly Weather History & Observations

Time (CET) Temp. Windchill Dew Point Humidity Pressure Visibility Wind Dir Wind Speed Gust Speed Precip Events Conditions
12:25 AM 26.6 °F 19.1 °F 26.6 °F 100% 29.71 in 1.7 mi ENE 6.9 mph - N/A   Overcast
12:55 AM 28.4 °F 23.3 °F 26.6 °F 93% 29.71 in 1.6 mi NE 4.6 mph - N/A   Overcast
1:00 AM 28 °F - 26 °F 89% 29.75 in 1 mi NE 4.5 mph - -   Mist
1:25 AM 26.6 °F 21.2 °F 26.6 °F 100% 29.71 in 1.6 mi NE 4.6 mph - N/A   Overcast
1:55 AM 26.6 °F 20.0 °F 26.6 °F 100% 29.71 in 1.6 mi NE 5.8 mph - N/A   Overcast
2:25 AM 26.6 °F 20.0 °F 24.8 °F 93% 29.71 in 1.6 mi NE 5.8 mph - N/A   Overcast
2:55 AM 26.6 °F 20.0 °F 24.8 °F 93% 29.71 in 1.6 mi NE 5.8 mph - N/A   Overcast
3:25 AM 26.6 °F 20.0 °F 24.8 °F 93% 29.74 in 1.6 mi NE 5.8 mph - N/A   Overcast
3:55 AM 26.6 °F 20.0 °F 24.8 °F 93% 29.71 in 1.5 mi NE 5.8 mph - N/A   Overcast
4:00 AM 27 °F - 26 °F 93% 29.77 in 1 mi NE 4.5 mph - -   Mist
4:25 AM 26.6 °F 19.1 °F 26.6 °F 100% 29.74 in 1.5 mi NE 6.9 mph - N/A   Overcast
4:55 AM 26.6 °F 20.0 °F 26.6 °F 100% 29.74 in 1.5 mi NE 5.8 mph - N/A   Overcast
5:25 AM 26.6 °F 19.1 °F 26.6 °F 100% 29.74 in 1.5 mi NE 6.9 mph - N/A   Overcast
5:55 AM 26.6 °F 21.2 °F 24.8 °F 93% 29.74 in 1.5 mi NE 4.6 mph - N/A   Overcast
6:25 AM 26.6 °F 19.1 °F 24.8 °F 93% 29.74 in 1.5 mi NE 6.9 mph - N/A   Overcast
6:55 AM 26.6 °F 21.2 °F 26.6 °F 100% 29.74 in 1.6 mi NE 4.6 mph - N/A   Overcast
7:00 AM 27 °F - 26 °F 96% 29.78 in 1 mi NE 4.5 mph - -   Mist
7:25 AM 26.6 °F 22.6 °F 26.6 °F 100% 29.74 in 1.6 mi NE 3.5 mph - N/A   Overcast
7:55 AM 26.6 °F 20.0 °F 26.6 °F 100% 29.74 in 1.6 mi NE 5.8 mph - N/A   Overcast
8:25 AM 26.6 °F 20.0 °F 26.6 °F 100% 29.74 in 1.4 mi NNE 5.8 mph - N/A   Overcast
8:55 AM 28.4 °F 20.4 °F 26.6 °F 93% 29.74 in 1.4 mi NE 8.1 mph - N/A   Overcast
9:25 AM 26.6 °F 19.1 °F 26.6 °F 100% 29.77 in 1.4 mi NE 6.9 mph - N/A   Overcast
9:55 AM 24.8 °F 16.9 °F 24.8 °F 100% 29.77 in 1.4 mi NE 6.9 mph - N/A   Scattered Clouds
10:00 AM 25 °F - 24 °F 95% 29.81 in 1 mi NE 4.5 mph - -   Mist
10:25 AM 24.8 °F 19.1 °F 24.8 °F 100% 29.77 in 1.3 mi NE 4.6 mph - N/A   Scattered Clouds
10:55 AM 26.6 °F 20.0 °F 24.8 °F 93% 29.77 in 1.5 mi NNE 5.8 mph - N/A   Mostly Cloudy
11:25 AM 26.6 °F 21.2 °F 24.8 °F 93% 29.77 in 1.7 mi NNE 4.6 mph - N/A   Overcast
11:55 AM 28.4 °F 24.6 °F 24.8 °F 86% 29.80 in 1.9 mi NE 3.5 mph - N/A   Overcast
12:25 PM 28.4 °F 22.2 °F 26.6 °F 93% 29.77 in - NE 5.8 mph - N/A   Overcast
12:55 PM 30.2 °F - 26.6 °F 86% 29.77 in - ENE 1.2 mph - N/A   Overcast
1:00 PM 30 °F - 26 °F 81% 29.82 in 2 mi Calm Calm - -   Mist
1:25 PM 30.2 °F - 26.6 °F 86% 29.77 in - NW 2.3 mph - N/A   Overcast
1:55 PM 30.2 °F 25.4 °F 26.6 °F 86% 29.77 in - North 4.6 mph - N/A   Overcast
2:25 PM 30.2 °F 25.4 °F 26.6 °F 86% 29.77 in - North 4.6 mph - N/A   Overcast
2:55 PM 30.2 °F 23.4 °F 26.6 °F 86% 29.77 in 2.5 mi NE 6.9 mph - N/A   Overcast
3:25 PM 30.2 °F 23.4 °F 26.6 °F 86% 29.77 in 2.8 mi NNE 6.9 mph - N/A   Overcast
3:55 PM 30.2 °F 23.4 °F 26.6 °F 86% 29.77 in 2.8 mi NNE 6.9 mph - N/A   Overcast
4:00 PM 30 °F - 26 °F 80% 29.82 in 3 mi NE 6.7 mph - -   Mist
4:25 PM 28.4 °F 21.2 °F 24.8 °F 86% 29.77 in - NE 6.9 mph - N/A   Mist
4:55 PM 26.6 °F 21.2 °F 23.0 °F 86% 29.80 in - NE 4.6 mph - N/A   Scattered Clouds
5:25 PM 24.8 °F 16.9 °F 23.0 °F 93% 29.80 in - NE 6.9 mph - N/A   Mostly Cloudy
5:55 PM 24.8 °F 16.9 °F 23.0 °F 93% 29.80 in - NNE 6.9 mph - N/A   Mostly Cloudy
6:25 PM 24.8 °F 16.1 °F 21.2 °F 86% 29.80 in - NNE 8.1 mph - N/A   Mist
6:55 PM 23.0 °F 17.0 °F 21.2 °F 93% 29.80 in - NE 4.6 mph - N/A   Partly Cloudy
7:00 PM 22 °F - 20 °F 89% 29.84 in 2 mi NE 6.7 mph - -   Mist
7:25 PM 21.2 °F 12.6 °F 19.4 °F 93% 29.80 in - NE 6.9 mph - N/A   Mist
7:55 PM 21.2 °F 12.6 °F 19.4 °F 93% 29.80 in 1.9 mi NE 6.9 mph - N/A   Mist
8:25 PM 21.2 °F 12.6 °F 19.4 °F 93% 29.80 in 1.8 mi NE 6.9 mph - N/A   Mostly Cloudy
8:55 PM 21.2 °F 13.6 °F 19.4 °F 93% 29.80 in 1.8 mi NE 5.8 mph - N/A   Overcast
9:25 PM 23.0 °F 15.8 °F 21.2 °F 93% 29.80 in 1.8 mi NE 5.8 mph - N/A   Overcast
9:55 PM 21.2 °F 14.9 °F 19.4 °F 93% 29.83 in 1.7 mi NNE 4.6 mph - N/A   Mist
10:00 PM 21 °F - 20 °F 94% 29.86 in 2 mi NE 4.5 mph - -   Mist
10:25 PM 19.4 °F 11.5 °F 17.6 °F 93% 29.83 in 1.7 mi NE 5.8 mph - N/A   Mist
10:55 PM 17.6 °F 9.3 °F 17.6 °F 100% 29.83 in 1.6 mi NE 5.8 mph - N/A   Partly Cloudy
11:25 PM 19.4 °F 12.8 °F 17.6 °F 93% 29.83 in 1.7 mi NNE 4.6 mph - N/A   Partly Cloudy
11:55 PM 21.2 °F 13.6 °F 21.2 °F 100% 29.80 in 1.7 mi NE 5.8 mph - N/A   Overcast